Regional Weather Roundup
Issued by NWS

Home | Current Version | Previous Version | Text Only | Print | Product List | Glossary Off
Versions: 1 2 3 4 5 6 7 8 9 10 11 12 13 14 15 16 17 18 19 20 21 22 23 24 25 26 27 28 29 30 31 32 33 34 35 36 37 38 39 40 41 42 43 44 45 46 47 48 49 50

446
ASUS45 KPSR 240410
RWRAZ

ARIZONA HOURLY REGIONAL WEATHER ROUNDUP
NATIONAL WEATHER SERVICE PHOENIX AZ
900 PM MST THU FEB 23 2017

NOTE: FAIR INDICATES FEW OR NO CLOUDS BELOW 12,000 FEET WITH NO
SIGNIFICANT WEATHER AND/OR OBSTRUCTIONS TO VISIBILITY.

AZZ001>003-036-240500-
NORTHWEST ARIZONA

CITY           SKY/WX    TMP DP  RH WIND       PRES   REMARKS
BULLHEAD CITY  CLEAR     54  14  20 E6        29.96R
KINGMAN        CLEAR     40 -10  11 W8        29.94S WCI  34
$$

AZZ004>008-015-016-018-240500-
NORTH CENTRAL ARIZONA

CITY           SKY/WX    TMP DP  RH WIND       PRES   REMARKS
GRAND CANYON   CLEAR     25  12  58 SW6       29.87R WCI  18
WILLIAMS       CLEAR     25   5  42 W7        29.89R WCI  17
PRESCOTT       PTCLDY    35  15  44 SW12      29.93R WCI  27
FLAGSTAFF      CLEAR     27   5  39 W9        29.87R WCI  18
PAYSON         MOCLDY    36  23  60 W6        29.95R WCI  31
PAGE           CLOUDY    39   8  27 W8        29.86R WCI  33
$$

AZZ009>014-017-240500-
NORTHEAST ARIZONA

CITY           SKY/WX    TMP DP  RH WIND       PRES   REMARKS
WINSLOW        CLOUDY    40  23  50 SW15      29.87R WCI  32
SAINT JOHNS    PTCLDY    36  11  35 W21G29    29.83R WCI  25
WINDOW ROCK    CLOUDY    31  11  43 W3        29.81R
SHOW LOW       PTCLDY    28  10  47 S9        29.91R WCI  20
$$

AZZ023-240500-
GREATER PHOENIX AREA

CITY           SKY/WX    TMP DP  RH WIND       PRES   REMARKS
PHOENIX        CLEAR     53  27  36 SW8       29.94R
BUCKEYE        CLEAR     50  25  37 NW9       29.96S
LUKE AFB       CLEAR     53  26  34 SW7       29.94R
DEER VALLEY    CLEAR     52  23  32 W10       29.94R
SCOTTSDALE     CLEAR     54  21  27 W6        29.96R
CHANDLER       CLEAR     54  23  30 W9        29.96R
$$

AZZ027-028-240500-
SOUTHWEST MARICOPA COUNTY AND PINAL COUNTY

CITY           SKY/WX    TMP DP  RH WIND       PRES   REMARKS
CASA GRANDE    NOT AVBL
GILA BEND      CLEAR     54  18  24 W7        29.96R
$$

AZZ503-504-507>509-240500-
SOUTHEAST ARIZONA

CITY           SKY/WX    TMP DP  RH WIND       PRES   REMARKS
TUCSON         CLEAR     53  16  23 NW8       29.97R
DAVIS-MONTHAN  CLEAR     50  17  26 NW8       29.95R
NOGALES        CLEAR     43  18  36 S3        29.97R
SIERRA VISTA   CLEAR     47  14  26 W14       29.96R
DOUGLAS        CLEAR     46  12  25 N7        29.95R
SAFFORD        CLEAR     49  14  24 NW5       29.89R
$$

AZZ020-021-025-026-031-240500-
SOUTHWEST ARIZONA

CITY           SKY/WX    TMP DP  RH WIND       PRES   REMARKS
YUMA           CLEAR     58  31  35 N3        29.97R
$$

CAZ031-033-041-043-047-048-061-240500-
SOUTHERN CALIFORNIA

CITY           SKY/WX    TMP DP  RH WIND       PRES   REMARKS
DOWNTOWN L.A.  CLEAR     54  17  23 NW7       30.07R
L.A. AIRPORT   CLEAR     53  19  26 N8        30.07R
SAN DIEGO      PTCLDY    55  35  47 N3        30.12R
BURBANK        CLEAR     49  14  24 N10       30.07R
ONTARIO        PTCLDY    48  32  53 W6        30.05R
RIVERSIDE      CLEAR     47  34  60 W5        30.06R
PALM SPRINGS   CLEAR     58  32  37 NW18G24   29.97R
EL CENTRO NAS  CLEAR     56  31  38 W18       30.01R
IMPERIAL       CLEAR     55  35  47 W17       29.97R
BLYTHE         CLEAR     53  26  35 N7        29.98R
NEEDLES        CLEAR     56  18  22 NW10      29.96R
$$

NVZ020-UTZ003-240500-
SOUTHERN NEVADA-UTAH

CITY           SKY/WX    TMP DP  RH WIND       PRES   REMARKS
LAS VEGAS      PTCLDY    49   6  17 W7        29.94R
SALT LAKE CITY CLOUDY    31  22  69 W8        29.89R WCI  23
$$

NMZ009-TXZ055-240500-
NEW MEXICO-WEST TEXAS

CITY           SKY/WX    TMP DP  RH WIND       PRES   REMARKS
ALBUQUERQUE    CLEAR     41   8  25 NW14      29.79R
EL PASO        CLEAR     60   1   9 W16G28    29.82R
$$


........................KEY........................
SKY/WX - SKY CONDITION/WEATHER
TMP    - TEMPERATURE IN FAHRENHEIT
DP     - DEW POINT IN FAHRENHEIT
RH     - RELATIVE HUMIDITY IN PERCENT
WIND   - DIRECTION AND SPEED IN MILES PER HOUR (MPH)
VRB    - VARIABLE WIND DIRECTION
PRES   - MEAN SEA LEVEL PRESSURE IN INCHES OF MERCURY
         F - FALLING PRESSURE   R - RISING PRESSURE
         S - STEADY PRESSURE
VSB    - VISIBILITY IN MILES
HX     - HEAT INDEX IN FAHRENHEIT
WCI    - WIND CHILL INDEX IN FAHRENHEIT
TC     - TEMPERATURE IN CELSIUS WHICH IS ALSO KNOWN AS
         TEMPERATURE IN CENTIGRADE
AFB    - AIR FORCE BASE
         LUKE AFB IS LUKE AIR FORCE BASE
         DAVIS-MONTHAN IS DAVIS-MONTHAN AIR FORCE BASE
NAS    - NAVAL AIR STATION
         EL CENTRO NAS IS EL CENTRO NAVAL AIR STATION
N/A    - NOT AVAILABLE





USA.gov is the U.S. government's official web portal to all federal, state and local government web resources and services.